Trenton, NJ

7:51 PM EST on January 22, 2017 (GMT -0500)
McGuire Air Force Base

Weather History for KWRI - July, 2013

Change the Weather History Date:

Saturday, July 27, 2013

  Actual Average Record
Temperature  
Mean Temperature 72 °F -  
Max Temperature 84 °F 83 °F 98 °F (2005)
Min Temperature 62 °F 64 °F 60 °F (2001)
Cooling Degree Days 7    
Growing Degree Days 22 (Base 50)    
Moisture  
Dew Point 64 °F    
Average Humidity 79    
Maximum Humidity 100    
Minimum Humidity 51    
Precipitation  
Precipitation 0.00 in - - ()
Sea Level Pressure  
Sea Level Pressure 30.01 in    
Wind  
Wind Speed 5 mph (South)    
Max Wind Speed 12 mph    
Max Gust Speed 20 mph    
Visibility 10 miles    
Events Rain    
Averages and records for this station are not official NWS values.
T = Trace of Precipitation, MM = Missing Value Source: NWS Daily Summary

Daily Weather History Graph

Daily Weather History Graph

Search for Another Location

Airport or City:

Trip Planner

Search our weather history database for the weather conditions in past years. The results will help you decide how hot, cold, wet, or windy it might be!

Date:

Astronomy

Jul. 27, 2013 Rise Set
Actual Time 5:52 AM EDT 8:16 PM EDT
Civil Twilight 5:21 AM EDT 8:47 PM EDT
Nautical Twilight 4:43 AM EDT 9:25 PM EDT
Astronomical Twilight 4:01 AM EDT 10:07 PM EDT
Moon 11:02 PM EDT (7/27) 11:30 AM EDT (7/27)
Length of Visible Light 15h 25m
Length of Day
14h 24m
Waning Gibbous, 71% of the Moon is Illuminated
Jul 27
Waning Gibbous
Jul 29
Last Quarter
Aug 6
New
Aug 14
First Quarter
Aug 20
Full

Hourly Weather History & Observations

Time (EDT) Temp. Heat Index Dew Point Humidity Pressure Visibility Wind Dir Wind Speed Gust Speed Precip Events Conditions
12:58 AM 65.5 °F - 64.0 °F 95% 30.06 in 10.0 mi South 8.1 mph - N/A   Clear
1:58 AM 65.3 °F - 63.9 °F 95% 30.05 in 10.0 mi South 5.8 mph - N/A   Clear
2:58 AM 64.0 °F - 63.1 °F 97% 30.05 in 10.0 mi SSE 2.3 mph - N/A   Clear
3:58 AM 63.5 °F - 62.8 °F 97% 30.04 in 10.0 mi Calm Calm - N/A   Partly Cloudy
4:58 AM 63.3 °F - 62.4 °F 97% 30.04 in 10.0 mi East 1.2 mph - N/A   Partly Cloudy
5:55 AM 62.6 °F - 62.6 °F 100% 30.04 in 9.0 mi SSE 2.3 mph - N/A   Clear
6:58 AM 64.8 °F - 64.2 °F 98% 30.04 in 10.0 mi NW 1.2 mph - N/A   Mostly Cloudy
7:58 AM 68.9 °F - 66.6 °F 92% 30.05 in 10.0 mi SSW 5.8 mph - N/A   Scattered Clouds
8:58 AM 72.9 °F - 67.8 °F 84% 30.05 in 10.0 mi WSW 4.6 mph - N/A   Clear
9:12 AM 75.2 °F - 68.0 °F 78% 30.04 in 10.0 mi SSW 4.6 mph - N/A Rain Light Rain
9:21 AM 75.2 °F - 68.0 °F 78% 30.04 in 10.0 mi SW 4.6 mph - N/A   Clear
9:58 AM 78.1 °F - 69.1 °F 74% 30.05 in 10.0 mi SSW 6.9 mph - 0.00 in   Clear
10:14 AM 78.8 °F - 68.0 °F 69% 30.04 in 10.0 mi SW 6.9 mph - N/A Rain Light Rain
10:15 AM 78.8 °F - 68.0 °F 69% 30.04 in 10.0 mi SW 9.2 mph - N/A   Clear
10:40 AM 78.8 °F - 68.0 °F 69% 30.04 in 10.0 mi WSW 9.2 mph - N/A Rain Light Rain
10:43 AM 80.6 °F 83.2 °F 68.0 °F 65% 30.04 in 10.0 mi WSW 9.2 mph - N/A   Mostly Cloudy
10:58 AM 79.3 °F - 66.6 °F 65% 30.05 in 10.0 mi SSW 9.2 mph - 0.00 in   Mostly Cloudy
11:58 AM 79.2 °F - 65.1 °F 62% 30.05 in 10.0 mi WSW 8.1 mph - N/A   Mostly Cloudy
12:58 PM 82.0 °F 83.3 °F 63.3 °F 53% 30.04 in 10.0 mi SSW 9.2 mph - N/A   Scattered Clouds
1:58 PM 81.5 °F 82.8 °F 63.3 °F 54% 30.02 in 10.0 mi SW 6.9 mph - N/A   Scattered Clouds
2:58 PM 82.8 °F 83.8 °F 63.0 °F 51% 29.99 in 10.0 mi Variable 4.6 mph - N/A   Partly Cloudy
4:58 PM 81.0 °F 82.2 °F 63.1 °F 54% 29.96 in 10.0 mi South 3.5 mph - N/A   Clear
5:58 PM 80.1 °F 81.7 °F 64.2 °F 58% 29.94 in 10.0 mi SSE 11.5 mph - N/A   Clear
6:58 PM 77.0 °F - 61.5 °F 59% 29.96 in 10.0 mi SSE 10.4 mph 19.6 mph N/A   Clear
7:58 PM 72.7 °F - 61.5 °F 68% 29.98 in 10.0 mi South 5.8 mph - N/A   Clear
8:01 PM 71.6 °F - 62.6 °F 73% 29.97 in 10.0 mi South 3.5 mph - N/A Rain Light Rain
8:06 PM 71.6 °F - 62.6 °F 73% 29.97 in 10.0 mi South 4.6 mph - N/A   Clear
8:58 PM 69.3 °F - 62.2 °F 78% 29.99 in 10.0 mi SSE 2.3 mph - 0.00 in   Clear
9:35 PM 68.0 °F - 62.6 °F 83% 29.98 in 10.0 mi Calm Calm - N/A Rain Light Rain
9:56 PM 68.0 °F - 62.6 °F 83% 29.98 in 10.0 mi East 3.5 mph - N/A   Clear
9:57 PM 68.0 °F - 62.6 °F 83% 29.98 in 10.0 mi ENE 3.5 mph - N/A Rain Light Rain
9:58 PM 68.0 °F - 62.6 °F 83% 29.99 in 10.0 mi ENE 3.5 mph - 0.00 in Rain Light Rain
9:59 PM 66.2 °F - 62.6 °F 88% 29.98 in 10.0 mi ENE 2.3 mph - N/A   Clear
10:00 PM 66.2 °F - 62.6 °F 88% 29.98 in 10.0 mi ENE 2.3 mph - N/A Rain Light Rain
10:10 PM 68.0 °F - 62.6 °F 83% 29.98 in 10.0 mi ESE 2.3 mph - N/A   Clear
10:42 PM 66.2 °F - 62.6 °F 88% 29.96 in 10.0 mi ESE 2.3 mph - N/A Rain Light Rain
10:48 PM 66.2 °F - 62.6 °F 88% 29.95 in 10.0 mi ESE 2.3 mph - N/A   Clear
10:58 PM 65.7 °F - 63.5 °F 93% 29.96 in 10.0 mi ESE 2.3 mph - 0.00 in   Clear
11:35 PM 64.4 °F - 64.4 °F 100% 29.94 in 10.0 mi ESE 1.2 mph - N/A Rain Light Rain
11:40 PM 64.4 °F - 62.6 °F 94% 29.94 in 10.0 mi SE 2.3 mph - N/A   Clear
11:58 PM 65.1 °F - 64.0 °F 96% 29.96 in 10.0 mi SSE 2.3 mph - 0.00 in   Clear